Location: Krakow
(50.0830°N, 19.9170°E)
Time: 18:34:57
(UTC+01:00)

SR - Pass Details

Date: 14 February 2023
Orbit: 582 x 867 km, 66.7° (Epoch: 20 March)

Event Time Altitude Azimuth Distance (km) Brightness Sun altitude
Rises 16:40:46 0° 319° (NW) 2,926 ? 1.5°
Reaches altitude 10° 16:45:44 10° 7° (N) 1,954 ? 0.7°
Maximum altitude 16:46:00 10° 11° (N) 1,947 ? 0.7°
Drops below altitude 10° 16:46:17 10° 15° (NNE) 1,948 ? 0.7°
Enters shadow 16:51:02 - 63° (ENE) 2,798 ? -0.1°
Sets 16:51:05 0° 63° (ENE) 2,815 - -0.1°
